User: anonymous
Location: NJAA Observatory
(40.6819°N, 74.8979°W)
Time: 19:57:34
(UTC-04:00)
Language:

Meteor 1-28 Rocket - Orbit

View from above orbital plane
View from above orbital plane
View from above satellite
View from above satellite

Ground track
Ground track

The orbit data is extracted from the following two-line orbital elements,

1 10114U 77057B   14273.45041998  .00003464  00000-0  19528-3 0  3630
2 10114 097.2562 128.8442 0015483 169.6969 190.4584 15.13718610 33488
Epoch (UTC): 30 September 2014 10:48:36
Eccentricity: 0.0015483
inclination: 97.2562°
perigee height: 514 km
apogee height: 535 km
right ascension of ascending node: 128.8442°
argument of perigee: 169.6969°
revolutions per day: 15.13718610
mean anomaly at epoch: 190.4584°
orbit number at epoch: 3348

The dashed part of the orbit path shows where the satellite is in the earth's shadow,  

DLR